Вернуться в каталог

COSMOS 2251 DEB

АктивенLEO
NORAD 38486·DEBRIS·🇷🇺 Russia

Запущен Jun 16, 1993 с Plesetsk Cosmodrome

Loading…

Ближайшие Пролёты (ближайшие 24 часа)

TLE

СвежийSource: Space-Track

Эпоха: Sep 13, 2026, 02:37 UTC

1 38486U 93036BTW 26256.10928390  .00009224  00000-0  11781-2 0  9990
2 38486  73.9403  23.1339 0029833  99.0561  75.4081 14.81224553794878

Отслеживайте COSMOS 2251 DEB в реальном времени с AllMySat

Download on the App Store